Weather History for KFTY - May, 2013

Change the Weather History Date:

Wednesday, May 22, 2013

  Actual Average Record
Temperature  
Mean Temperature 76 °F 71 °F  
Max Temperature 87 °F 82 °F 91 °F (2011)
Min Temperature 65 °F 60 °F 43 °F (2002)
Cooling Degree Days 11 7  
Month to date cooling degree days 65 92  
Year to date cooling degree days 100 131  
Growing Degree Days 26 (Base 50)    
Moisture  
Dew Point 64 °F    
Average Humidity 68    
Maximum Humidity 93    
Minimum Humidity 42    
Precipitation  
Precipitation 0.03 in 0.11 in 1.97 in (1966)
Month to date precipitation 5.11 2.71  
Year to date precipitation 10.25 20.43  
Sea Level Pressure  
Sea Level Pressure 29.92 in    
Wind  
Wind Speed 4 mph (SW)    
Max Wind Speed 16 mph    
Max Gust Speed 23 mph    
Visibility 10 miles    
Events      
T = Trace of Precipitation, MM = Missing Value Source: NWS Daily Summary

Daily Weather History Graph

Daily Weather History Graph

Search for Another Location

Airport or City:

Trip Planner

Search our weather history database for the weather conditions in past years. The results will help you decide how hot, cold, wet, or windy it might be!

Date:

Astronomy

May. 22, 2013 Rise Set
Actual Time 6:32 AM EDT 8:37 PM EDT
Civil Twilight 6:04 AM EDT 9:05 PM EDT
Nautical Twilight 5:30 AM EDT 9:39 PM EDT
Astronomical Twilight 4:53 AM EDT 10:16 PM EDT
Moon 6:04 PM EDT (5/22) 4:28 AM EDT (5/22)
Length of Visible Light 15h 00m
Length of Day
14h 04m
Waxing Gibbous, 91% of the Moon is Illuminated
May 22
Waxing Gibbous
May 25
Full
May 31
Last Quarter
Jun 8
New
Jun 16
First Quarter

Hourly Weather History & Observations

Time (EDT) Temp. Heat Index Dew Point Humidity Pressure Visibility Wind Dir Wind Speed Gust Speed Precip Events Conditions
12:53 AM 73.9 °F - 64.9 °F 73% 29.96 in 10.0 mi Calm Calm - N/A   Clear
1:53 AM 70.0 °F - 64.9 °F 84% 29.96 in 10.0 mi Calm Calm - N/A   Clear
2:53 AM 68.0 °F - 64.9 °F 90% 29.94 in 9.0 mi Calm Calm - N/A   Partly Cloudy
3:53 AM 70.0 °F - 64.9 °F 84% 29.93 in 8.0 mi South 3.5 mph - N/A   Clear
4:53 AM 69.1 °F - 64.0 °F 84% 29.93 in 10.0 mi Calm Calm - N/A   Clear
5:53 AM 66.0 °F - 64.0 °F 93% 29.95 in 7.0 mi Calm Calm - N/A   Overcast
6:53 AM 66.0 °F - 64.0 °F 93% 29.94 in 7.0 mi Calm Calm - N/A   Clear
7:53 AM 69.1 °F - 64.0 °F 84% 29.96 in 9.0 mi South 3.5 mph - N/A   Partly Cloudy
8:53 AM 72.0 °F - 66.0 °F 81% 29.96 in 10.0 mi Calm Calm - N/A   Clear
9:53 AM 75.9 °F - 66.9 °F 74% 29.96 in 10.0 mi Variable 3.5 mph - N/A   Clear
10:53 AM 80.1 °F 82.1 °F 66.0 °F 62% 29.95 in 10.0 mi Calm Calm - N/A   Clear
11:53 AM 82.9 °F 84.0 °F 63.0 °F 51% 29.95 in 10.0 mi Variable 6.9 mph - N/A   Clear
12:53 PM 84.9 °F 85.9 °F 63.0 °F 48% 29.95 in 10.0 mi Variable 6.9 mph - N/A   Partly Cloudy
1:53 PM 84.9 °F 85.4 °F 62.1 °F 46% 29.93 in 10.0 mi South 8.1 mph - N/A   Clear
2:53 PM 86.0 °F 85.7 °F 60.1 °F 41% 29.91 in 10.0 mi South 12.7 mph 17.3 mph N/A   Clear
3:53 PM 86.0 °F 86.1 °F 61.0 °F 43% 29.89 in 10.0 mi SSW 11.5 mph 18.4 mph N/A   Clear
4:53 PM 86.0 °F 86.3 °F 62.1 °F 44% 29.86 in 10.0 mi WSW 11.5 mph 17.3 mph N/A   Clear
5:53 PM 86.0 °F 86.3 °F 62.1 °F 44% 29.85 in 10.0 mi WSW 10.4 mph - N/A   Scattered Clouds
6:53 PM 84.0 °F 84.4 °F 61.0 °F 46% 29.86 in 10.0 mi West 10.4 mph 16.1 mph N/A   Clear
7:53 PM 82.0 °F 83.1 °F 63.0 °F 52% 29.87 in 10.0 mi WSW 5.8 mph - N/A   Clear
8:53 PM 79.0 °F - 63.0 °F 58% 29.88 in 10.0 mi SW 3.5 mph - N/A   Clear
9:53 PM 75.0 °F - 64.9 °F 71% 29.88 in 10.0 mi Calm Calm - N/A   Clear
10:53 PM 75.9 °F - 64.9 °F 69% 29.90 in 10.0 mi WSW 3.5 mph - 0.00 in   Scattered Clouds
11:53 PM 71.1 °F - 66.9 °F 87% 29.90 in 10.0 mi Calm Calm - 0.03 in   Mostly Cloudy